Weather History for Harlingen, TX

Change the Weather History Date:

Saturday, February 2, 2013

  Actual Average Record
Temperature  
Mean Temperature 70 °F 62 °F  
Max Temperature 81 °F 72 °F 94 °F (2006)
Min Temperature 59 °F 51 °F 24 °F (1917)
Degree Days  
Heating Degree Days 0 5  
Month to date heating degree days 3 10  
Since 1 July heating degree days 302 458  
Cooling Degree Days 5 2  
Month to date cooling degree days 5 4  
Year to date cooling degree days 75 53  
Growing Degree Days 19 (Base 50)    
Moisture  
Dew Point 58 °F    
Average Humidity 71    
Maximum Humidity 93    
Minimum Humidity 48    
Precipitation  
Precipitation 0.00 in 0.05 in 1.62 in (1998)
Month to date precipitation 0.00 0.11  
Year to date precipitation 2.54 1.17  
Sea Level Pressure  
Sea Level Pressure 30.18 in    
Wind  
Wind Speed 7 mph (SE)    
Max Wind Speed 21 mph    
Max Gust Speed 24 mph    
Visibility 10 miles    
Events      
T = Trace of Precipitation, MM = Missing Value Source: NWS Daily Summary

Daily Weather History Graph

Daily Weather History Graph

Search for Another Location

Airport:

Trip Planner

Search our weather history database for the weather conditions in past years. The results will help you decide how hot, cold, wet, or windy it might be!

Date:

Astronomy

Feb. 02, 2013 Rise Set
Actual Time 7:14 AM CST 6:14 PM CST
Civil Twilight 6:50 AM CST 6:38 PM CST
Nautical Twilight 6:22 AM CST 7:06 PM CST
Astronomical Twilight 5:55 AM CST 7:33 PM CST
Moon No Moon Rise 11:10 AM CST (2/2)
Length of Visible Light 11h 48m
Length of Day
11h 00m
Waning Gibbous, 59% of the Moon is Illuminated
Feb 2
Waning Gibbous
Feb 3
Last Quarter
Feb 10
New
Feb 17
First Quarter
Feb 25
Full

Hourly Weather History & Observations

Time (CST) Temp. Dew Point Humidity Pressure Visibility Wind Dir Wind Speed Gust Speed Precip Events Conditions
12:52 AM 64.0 °F 55.0 °F 73% 30.18 in 10.0 mi SE 8.1 mph - N/A   Overcast
1:52 AM 63.0 °F 55.9 °F 78% 30.18 in 10.0 mi SE 5.8 mph - N/A   Overcast
2:52 AM 64.0 °F 55.0 °F 73% 30.16 in 10.0 mi SE 8.1 mph - N/A   Overcast
3:52 AM 63.0 °F 55.0 °F 75% 30.16 in 10.0 mi SE 4.6 mph - N/A   Overcast
4:52 AM 61.0 °F 55.0 °F 81% 30.16 in 10.0 mi SE 4.6 mph - N/A   Mostly Cloudy
5:52 AM 62.1 °F 55.9 °F 80% 30.16 in 10.0 mi ESE 3.5 mph - N/A   Mostly Cloudy
6:52 AM 62.1 °F 57.0 °F 84% 30.19 in 10.0 mi East 3.5 mph - N/A   Overcast
7:52 AM 62.1 °F 57.0 °F 84% 30.20 in 10.0 mi Calm Calm - N/A   Overcast
8:24 AM 64.4 °F 57.2 °F 77% 30.20 in 10.0 mi Calm Calm - N/A   Mostly Cloudy
8:32 AM 64.4 °F 57.2 °F 77% 30.21 in 10.0 mi Calm Calm - N/A   Mostly Cloudy
8:41 AM 64.4 °F 57.2 °F 77% 30.21 in 10.0 mi SSE 3.5 mph - N/A   Mostly Cloudy
8:52 AM 66.0 °F 59.0 °F 78% 30.21 in 10.0 mi SE 3.5 mph - N/A   Mostly Cloudy
9:52 AM 70.0 °F 59.0 °F 68% 30.22 in 10.0 mi SSE 6.9 mph - N/A   Mostly Cloudy
10:52 AM 73.0 °F 59.0 °F 61% 30.22 in 10.0 mi South 10.4 mph - N/A   Scattered Clouds
12:52 PM 75.0 °F 59.0 °F 57% 30.17 in 10.0 mi Variable 5.8 mph - N/A   Mostly Cloudy
1:52 PM 78.1 °F 57.9 °F 50% 30.14 in 10.0 mi WSW 5.8 mph - N/A   Partly Cloudy
2:52 PM 79.0 °F 57.0 °F 47% 30.13 in 10.0 mi WSW 5.8 mph - N/A   Scattered Clouds
2:55 PM 78.8 °F 57.2 °F 47% 30.13 in 10.0 mi SW 6.9 mph - N/A   Mostly Cloudy
3:52 PM 75.9 °F 60.1 °F 58% 30.12 in 10.0 mi ESE 17.3 mph 24.2 mph N/A   Mostly Cloudy
4:52 PM 73.9 °F 60.1 °F 62% 30.13 in 10.0 mi ESE 19.6 mph - N/A   Clear
5:52 PM 71.1 °F 60.1 °F 68% 30.14 in 10.0 mi ESE 16.1 mph 23.0 mph N/A   Scattered Clouds
6:52 PM 68.0 °F 59.0 °F 73% 30.17 in 10.0 mi ESE 11.5 mph - N/A   Partly Cloudy
7:52 PM 66.0 °F 57.9 °F 75% 30.19 in 10.0 mi ESE 9.2 mph - N/A   Clear
8:52 PM 64.0 °F 57.9 °F 80% 30.22 in 10.0 mi East 6.9 mph - N/A   Scattered Clouds
9:52 PM 62.1 °F 57.9 °F 86% 30.23 in 10.0 mi East 4.6 mph - N/A   Clear
10:52 PM 59.0 °F 57.0 °F 93% 30.23 in 10.0 mi ESE 3.5 mph - N/A   Mostly Cloudy
11:52 PM 61.0 °F 57.0 °F 87% 30.23 in 10.0 mi ESE 4.6 mph - N/A   Clear